OISF  Fasa Airport

Add Bookmark

Fasa, Iran

Status IATA
Operational FAZ
Latitude Longitude
28° 53' 30" N 53° 43' 23" E
28.891800 53.723301
Local (DST + 5) UTC (GMT + 4)
Oct 23, 2014 06:36 Oct 23, 2014 15:06
Sunrise-Sunset Local UTC
Begin Civil Twilight 05:36 02:06
Sunrise 06:00 02:30
Sunset 05:18 13:48
End Civil Twilight 05:42 14:12

Current Weather

METAR Observed VFR
OISF 231350Z 20004KT CAVOK 25/M04 Q1017 Thu, Oct 23, 2014 @ 13:50 UTC
(1 Hour, 16 Minutes ago)
Visual Flight Rules
Wind Visibility Clouds Conditions
200° at 4 knots (7 kph) 10 km or more
  • Clear skies
  • No significant weather
Temperatures Readings Precipitation
Current Temp 25°C (77°F)
Dewpoint -4°C (25°F)
Humidity 14%
Altimeter 30.03"Hg
Sea Level Pressure 1017mb
Field Elevation 4537.4'
None Recorded

Additional weather within a 185.2km radius of OISF

Map ICAO Location
OISS 131.3km W (303°)
OISL 149.8km S (154°)
OISR 176.7km S (197°)
OIBJ 179.3km S (229°)

24 Hour Weather History

Loading
-

24 Hour Weather Graphs

Loading
-

CheckWX.com is intended as a tool to help pilots better visualize weather data. It is not intended as a substitute for an official weather briefing obtained from a Flight Service Station. CheckWX.com does not meet the FAA requirements for an official pre-flight weather briefing. Therefore, it's important that pilots still call and obtain an official FSS pre-flight weather briefing.